Location: Powder Track
(41.8531°N, 72.3584°W)
Time: 17:51:17
(UTC+00:00)

Transit 4A - Pass Details

Date: 09 August 2021
Orbit: 871 x 974 km, 66.8° (Epoch: 19 September)

Event Time Altitude Azimuth Distance (km) Brightness Sun altitude
Rises 10:22:32 0° 337° (NNW) 3,476 10.8 4.6°
Reaches altitude 10° 10:25:26 10° 350° (N) 2,544 10.3 5.1°
Maximum altitude 10:30:19 26° 46° (NE) 1,671 10.4 6.0°
Drops below altitude 10° 10:35:16 10° 102° (ESE) 2,581 11.6 6.8°
Sets 10:38:13 0° 115° (ESE) 3,537 11.8 7.4°
